Regional Weather Roundup
Issued by NWS Cleveland, OH

Home | Current Version | Previous Version | Graphics & Text | Print | Product List | Glossary On
Versions: 1 2 3 4 5 6 7 8 9 10 11 12 13 14 15 16 17 18 19 20 21 22 23 24 25 26 27 28 29 30 31 32 33 34 35 36 37 38 39 40 41 42 43 44 45 46 47 48 49 50
000
ASUS41 KCLE 312012
RWRCLE
OHIO REGIONAL WEATHER ROUNDUP
NATIONAL WEATHER SERVICE WILMINGTON, OH
400 PM EDT TUE MAY 31 2016

NOTE: "FAIR" INDICATES FEW OR NO CLOUDS BELOW 12,000 FEET WITH NO
SIGNIFICANT WEATHER AND/OR OBSTRUCTIONS TO VISIBILITY.

OHZ001>008-015>018-024>027-034-035-043-044-312100-
   NORTHWEST OHIO

CITY           SKY/WX    TMP DP  RH WIND       PRES   REMARKS
DEFIANCE       FAIR      85  49  28 E9        30.01F
FINDLAY        FAIR      83  50  31 NE10      30.00S
TOLEDO EXPRESS FAIR      83  49  30 NE9       30.02F
TOLEDO EXEC    FAIR      82  50  32 NE13      30.04F
LIMA           FAIR      85  51  31 NE6       30.00S
$$

OHZ009>014-019>023-028>033-038-089-312100-
   NORTHEAST OHIO

CITY           SKY/WX    TMP DP  RH WIND       PRES   REMARKS
CLE-HOPKINS    PTSUNNY   78  53  41 NE15      30.05R
CLE-LAKEFRONT  FAIR      72  64  76 NE9       30.02S
CUY CO. ARPT   PTSUNNY   82  54  36 NE16      30.04S
LORAIN-ELYRIA  FAIR      80  52  37 NE16      30.03S
ASHTABULA      FAIR      78  46  32 NE6       30.04S
AKRON-CANTON   PTSUNNY   82  56  40 N9        30.00S
WOOSTER        FAIR      86  59  39 N14G22    30.01S
MANSFIELD      FAIR      81  59  47 N13       30.02S
YOUNGSTOWN     CLOUDY    83  59  44 N15       30.01S
$$

OHZ042-051>053-060>062-070>072-077>081-312100-
  SOUTHWEST OHIO

CITY           SKY/WX    TMP DP  RH WIND       PRES   REMARKS
CINC-COVINGTON CLOUDY    84  61  45 W7        29.98F
CINC-LUNKEN    FAIR      85  60  42 CALM      29.96F
HAMILTON       FAIR      89  57  33 CALM      29.97F
DAYTON         PTSUNNY   87  52  29 N3        29.98F
WRIGHT-PAT AFB MOSUNNY   87  53  30 SW5       29.96F
DAYTON GENERAL FAIR      86  54  33 SE6       29.97F
WILMINGTON     FAIR      86  54  33 SE5       29.98F
$$

OHZ036-037-039>041-045>050-054>059-063>069-073>076-082>088-312100-
  CENTRAL AND SOUTHEAST OHIO

CITY           SKY/WX    TMP DP  RH WIND       PRES   REMARKS
COLUMBUS       CLOUDY    84  56  38 CALM      29.97S
OSU AIRPORT    FAIR      87  58  37 W5        29.98S
BOLTON FIELD   NOT AVBL
RICKENBACK AFB FAIR      85  54  34 CALM      29.97S
NEWARK         FAIR      88  54  31 VRB6      29.97S
MARION         FAIR      86  53  32 N8        30.00S
LANCASTER      FAIR      85  56  37 W3        29.98S
ZANESVILLE     FAIR      87  54  32 CALM      29.98S
NEW PHILLY     FAIR      89  48  24 VRB5      29.98S
$$




USA.gov is the U.S. government's official web portal to all federal, state and local government web resources and services.